Torna al catalogo

ONEWEB-0335

AttivoComunicazioniPO
NORAD 49201·PAYLOAD·🇬🇧 United Kingdom

Lanciato Sep 14, 2021 da Baikonur Cosmodrome

Loading…

Prossimi Passaggi (prossime 24 ore)

TLE

AggiornatoSource: CelesTrak SupGP

Epoca: Sep 14, 2026, 06:33 UTC

1 49201C 21083R   26257.27308287 -.00003061  00000+0 -83927-2 0  2578
2 49201  87.8922 302.5077 0001995 101.3828 306.9675 13.13475432    15

Traccia ONEWEB-0335 in tempo reale con AllMySat

Download on the App Store